Location: Buch am Rannenberg
(48.6989°N, 10.6399°E)
Time: 17:55:31
(UTC+00:00)

NOSS 2-1 (E) - Pass Details

Date: 07 June 2020
Orbit: 446 x 1757 km, 63.3° (Epoch: 25 June)

Event Time Altitude Azimuth Distance (km) Brightness Sun altitude
Exits shadow 02:05:20 11° 241° (WSW) 1,496 5.0 -9.2°
Maximum altitude 02:08:26 50° 317° (NW) 610 3.6 -8.9°
Drops below altitude 10° 02:12:10 10° 35° (NE) 1,782 7.6 -8.5°
Sets 02:14:38 0° 40° (NE) 2,818 9.5 -8.2°
